Hourly Weather Roundup
Issued by NWS Central Illinois

Home | Current Version | Previous Version | Text Only | Print | Product List | Glossary On
Versions: 1 2 3 4 5 6 7 8 9 10 11 12 13 14 15 16 17 18 19 20 21 22 23 24 25 26 27 28 29 30 31 32 33 34 35 36 37 38 39 40 41 42 43 44 45 46 47 48 49 50
000
NZUS43 KILX 071310
HWRILX

AREA WEATHER ROUNDUP
NATIONAL WEATHER SERVICE, LINCOLN IL
800 AM CDT TUE JUL 07 2015


CITY           SKY/WX    TMP DP  RH WIND       PRES   REMARKS
BLOOMINGTON    CLOUDY    67  67 100 N15       29.92R
CHAMPAIGN      LGT RAIN  73  71  93 CALM      29.89F
DANVILLE       RAIN      73  72  97 W3        29.86F
DECATUR        LGT RAIN  72  70  93 S3        29.89R
EFFINGHAM      CLOUDY    76  71  84 S8        29.92S
FLORA          CLOUDY    76  72  88 SW6       29.92S
GALESBURG      CLOUDY    62  59  89 N14       29.97R FOG
JACKSONVILLE   RAIN      67  66  95 NW10      29.93R
LACON          DRIZZLE   63  60  92 N8        29.94R
LAWRENCEVILLE  CLOUDY    77  73  87 S14       29.92F
LITCHFIELD     RAIN      72  70  94 SW3       29.91R
$$


CITY           SKY/WX    TMP DP  RH WIND       PRES   REMARKS
LINCOLN        CLOUDY    69  67  94 N6        29.91R
MACOMB         LGT RAIN  62  61  96 N15       29.97S
MATTOON        HVY RAIN  72  71  97 CALM      29.90R VSB 3/4
MT CARMEL AP   CLOUDY    79  72  78 SW12      29.92F HX  82
OLNEY-NOBLE AP CLOUDY    75  72  88 S7        29.92F
PARIS          HVY RAIN  73  71  94 NW3       29.91R
PEORIA         LGT RAIN  65  61  87 N7        29.93R FOG
PONTIAC        LGT RAIN  66  65  97 N22G29    29.91S
RANTOUL        LGT RAIN  74  73  94 CALM      29.88S
ROBINSON       CLOUDY    77  73  87 SW9G16    29.92S
SPRINGFIELD    LGT RAIN  70  67  90 NW13G22   29.91R FOG
TAYLORVILLE    LGT RAIN  70  70 100 CALM      29.90R
$$

...REGIONAL REPORTS...


CITY           SKY/WX    TMP DP  RH WIND       PRES   REMARKS
CHICAGO O`HARE CLOUDY    59  55  87 N15G23    29.97R FOG
KANKAKEE       LGT RAIN  61  60  96 NE14G21   29.92R
MOLINE         CLOUDY    63  57  81 N7        29.99R HAZE
MOUNT STERLING NOT AVBL
MOUNT VERNON   CLOUDY    77  70  78 SW9       29.93S
PITTSFIELD     DRIZZLE   66  64  93 NW10      29.96R
QUINCY         CLOUDY    63  61  93 N12       29.97R FOG
ROCKFORD       CLOUDY    64  57  78 NE13      29.99R HAZE
$$


CITY           SKY/WX    TMP DP  RH WIND       PRES   REMARKS
BURLINGTON     CLOUDY    63  59  87 N12       29.98S FOG
CEDAR RAPIDS   MOSUNNY   61  58  90 N13       30.03R FOG
DES MOINES     MOSUNNY   60  51  72 N15G21    30.08R
KIRKSVILLE     CLOUDY    63  58  83 N15G21    30.01S HAZE
OTTUMWA        MOSUNNY   62  58  86 N14       30.03R FOG
ST LOUIS       CLOUDY    75  72  88 SW8       29.92S
$$


CITY           SKY/WX    TMP DP  RH WIND       PRES   REMARKS
TERRE HAUTE    CLOUDY    77  72  84 S10       29.90F
EVANSVILLE     RAIN      73  71  93 S16       29.97S FOG
INDIANAPOLIS   CLOUDY    77  71  82 S12       29.92S
LAFAYETTE      CLOUDY    71  70  96 S3        29.89S
MADISON        CLOUDY    61  56  83 N8        30.00R SMOKE
MILWAUKEE      CLOUDY    59  54  83 N10G22    29.98R
$$




USA.gov is the U.S. government's official web portal to all federal, state and local government web resources and services.